This demonstration page uses our WeatherBlox Daily Observations layout. Learn more.

38.88101, -77.10428

Hourly Observations for August 23, 2018

Temp ( °F °C ) Dew Point ( °F °C ) Humidity (%) Winds ( mph kmh ) Pressure ( in mb ) Visibility ( mi km ) Precip ( " mm )
12:52 am 00:52 Clear 72 22.2 57 13.9 59 59 NW 12 19 29.93 1014 10 16.0934 0 0
1:52 am 01:52 Clear 70 21.1 57 13.9 64 64 NW 10 17 29.94 1014 10 16.0934 0 0
2:52 am 02:52 Clear 69 20.6 57 13.9 66 66 NW 12 19 29.94 1014 10 16.0934 0 0
3:52 am 03:52 Clear 68 20 56 13.3 65 65 NW 12 19 29.95 1014 10 16.0934 0 0
4:52 am 04:52 Clear 67 19.4 55 12.8 66 66 NW 14 22 29.96 1015 10 16.0934 0 0
5:52 am 05:52 Clear 66 18.9 55 12.8 68 68 NW 12 19 29.98 1015 10 16.0934 0 0
6:52 am 06:52 Mostly Sunny 66 18.9 55 12.8 68 68 NW 15 24 30.01 1016 10 16.0934 0 0
7:52 am 07:52 Mostly Sunny 67 19.4 55 12.8 66 66 NW 12 19 30.04 1017 10 16.0934 0 0
8:52 am 08:52 Mostly Sunny 69 20.6 56 13.3 63 63 N 13 20 30.06 1018 10 16.0934 0 0
9:52 am 09:52 Mostly Sunny 71 21.7 55 12.8 57 57 NNW 15 24 30.08 1019 10 16.0934 0 0
10:52 am 10:52 Mostly Sunny 74 23.3 53 11.7 48 48 N 17 28 30.09 1019 10 16.0934 0 0
11:52 am 11:52 Mostly Sunny 76 24.4 52 11.1 43 43 N 10 17 30.1 1019 10 16.0934 0 0
12:52 pm 12:52 Mostly Sunny 78 25.6 49 9.4 36 36 N 15 24 30.09 1019 10 16.0934 0 0
1:52 pm 13:52 Mostly Sunny 79 26.1 50 10 36 36 NNW 14 22 30.09 1019 10 16.0934 0 0
2:52 pm 14:52 Partly Cloudy 80 26.7 53 11.7 39 39 N 14 22 30.08 1019 10 16.0934 0 0
3:52 pm 15:52 Mostly Cloudy 79 26.1 52 11.1 39 39 N 8 13 30.07 1018 10 16.0934 0 0
4:52 pm 16:52 Mostly Cloudy 80 26.7 53 11.7 39 39 N 9 15 30.07 1018 10 16.0934 0 0
5:52 pm 17:52 Partly Cloudy 77 25 52 11.1 42 42 N 10 17 30.07 1018 10 16.0934 0 0
6:52 pm 18:52 Mostly Sunny 78 25.6 53 11.7 42 42 WNW 6 9 30.09 1019 10 16.0934 0 0
7:52 pm 19:52 Sunny 76 24.4 54 12.2 47 47 VRB 6 9 30.1 1019 10 16.0934 0 0
8:52 pm 20:52 Clear 77 25 54 12.2 45 45 W 5 7 30.12 1020 10 16.0934 0 0
9:52 pm 21:52 Clear 74 23.3 59 15 60 60 Calm 30.14 1021 10 16.0934 0 0
10:52 pm 22:52 Clear 71 21.7 57 13.9 61 61 SW 5 7 30.15 1021 10 16.0934 0 0
11:52 pm 23:52 Clear 69 20.6 58 14.4 68 68 SW 5 7 30.15 1021 10 16.0934 0 0

Powered by AerisWeather